RYR83CM LEBL-LMML

Flight info

Callsign RYR83CM
Flight time 1h 46m
Altitude 34000
Route DIPES N725 OSPOK/N0437F370 DCT NOLVI DCT ORKUM/N0433F360 DCT ELSAG DCT ALG/N0435F370 DCT SENTI DCT ROBIM DCT UPLIT M732 GZO
Aircraft B738/M-SDE3FGIJ1LRWY/SB1

Departure

Time 2026-05-06 18:12
Airport Josep Tarradellas Barcelona-El Prat Airport (LEBL)

Arrival

Time 2026-05-06 19:58
Airport Malta International Airport (LMML)
Time Latitude Longitude Altitude Speed Heading
2026-05-06 17:33 41.30307 2.08239 19 ft 0 kts 13°
2026-05-06 17:58 41.30292 2.08234 21 ft 4 kts 13°
2026-05-06 17:59 41.30269 2.08226 22 ft 3 kts 13°
2026-05-06 17:59 41.30245 2.08225 21 ft 4 kts 327°
2026-05-06 17:59 41.30234 2.08248 22 ft 4 kts 261°
2026-05-06 17:59 41.30243 2.08280 22 ft 4 kts 245°
2026-05-06 18:00 41.30245 2.08287 18 ft 1 kts 245°
2026-05-06 18:02 41.30226 2.08230 18 ft 9 kts 245°
2026-05-06 18:02 41.30179 2.08184 17 ft 10 kts 166°
2026-05-06 18:02 41.30109 2.08222 17 ft 11 kts 156°
2026-05-06 18:03 41.30040 2.08264 17 ft 11 kts 155°
2026-05-06 18:03 41.29979 2.08301 20 ft 8 kts 156°
2026-05-06 18:03 41.29927 2.08331 22 ft 8 kts 156°
2026-05-06 18:03 41.29870 2.08366 25 ft 12 kts 155°
2026-05-06 18:04 41.29761 2.08432 17 ft 22 kts 156°
2026-05-06 18:04 41.29624 2.08513 17 ft 21 kts 155°
2026-05-06 18:04 41.29491 2.08594 16 ft 21 kts 156°
2026-05-06 18:04 41.29362 2.08672 15 ft 20 kts 155°
2026-05-06 18:05 41.29237 2.08747 16 ft 19 kts 155°
2026-05-06 18:05 41.29116 2.08820 15 ft 19 kts 156°
2026-05-06 18:05 41.29000 2.08889 14 ft 15 kts 156°
2026-05-06 18:05 41.28951 2.08987 15 ft 14 kts 74°
2026-05-06 18:06 41.28993 2.09113 17 ft 16 kts 65°
2026-05-06 18:06 41.29044 2.09260 16 ft 19 kts 65°
2026-05-06 18:06 41.29100 2.09431 16 ft 21 kts 64°
2026-05-06 18:06 41.29168 2.09618 17 ft 24 kts 62°
2026-05-06 18:07 41.29234 2.09815 16 ft 23 kts 65°
2026-05-06 18:07 41.29295 2.09960 16 ft 15 kts 64°
2026-05-06 18:07 41.29339 2.10088 15 ft 15 kts 65°
2026-05-06 18:07 41.29368 2.10215 14 ft 14 kts 98°
2026-05-06 18:08 41.29329 2.10269 12 ft 0 kts 154°
2026-05-06 18:08 41.29298 2.10288 13 ft 10 kts 155°
2026-05-06 18:09 41.29232 2.10317 13 ft 9 kts 189°
2026-05-06 18:09 41.29204 2.10276 14 ft 0 kts 245°
2026-05-06 18:11 41.29200 2.10264 15 ft 10 kts 245°
2026-05-06 18:11 41.29076 2.09902 18 ft 77 kts 244°
2026-05-06 18:12 41.28754 2.08971 18 ft 138 kts 245°
2026-05-06 18:12 41.28315 2.07709 418 ft 152 kts 244°
2026-05-06 18:12 41.27790 2.06492 1034 ft 154 kts 220°
2026-05-06 18:12 41.26799 2.06085 1622 ft 160 kts 180°
2026-05-06 18:13 41.25571 2.06073 1891 ft 193 kts 183°
2026-05-06 18:13 41.24154 2.06024 2292 ft 211 kts 184°
2026-05-06 18:13 41.22638 2.05957 2773 ft 222 kts 184°
2026-05-06 18:13 41.21087 2.05879 3499 ft 224 kts 185°
2026-05-06 18:14 41.19506 2.05793 4200 ft 230 kts 185°
2026-05-06 18:14 41.17897 2.05700 4936 ft 233 kts 185°
2026-05-06 18:14 41.16229 2.05730 5380 ft 254 kts 169°
2026-05-06 18:14 41.14637 2.06929 5650 ft 279 kts 130°
2026-05-06 18:15 41.13816 2.09250 6302 ft 283 kts 96°
2026-05-06 18:15 41.13679 2.11854 7068 ft 284 kts 91°
2026-05-06 18:15 41.13605 2.14492 7812 ft 288 kts 91°
2026-05-06 18:15 41.13533 2.17169 8540 ft 293 kts 91°
2026-05-06 18:16 41.13447 2.19888 9281 ft 297 kts 91°
2026-05-06 18:16 41.13348 2.22637 10030 ft 300 kts 92°
2026-05-06 18:16 41.13235 2.25460 10401 ft 318 kts 92°
2026-05-06 18:16 41.13105 2.28478 10667 ft 336 kts 93°
2026-05-06 18:17 41.12963 2.31610 11259 ft 343 kts 93°
2026-05-06 18:17 41.12813 2.34777 12002 ft 346 kts 93°
2026-05-06 18:17 41.12711 2.36895 12493 ft 348 kts 94°
2026-05-06 18:17 41.12553 2.40115 13225 ft 352 kts 94°
2026-05-06 18:18 41.12390 2.43379 13944 ft 357 kts 94°
2026-05-06 18:18 41.12224 2.46686 14594 ft 362 kts 94°
2026-05-06 18:18 41.12053 2.50048 15222 ft 368 kts 94°
2026-05-06 18:18 41.11879 2.53459 15857 ft 374 kts 94°
2026-05-06 18:19 41.11701 2.56931 16492 ft 380 kts 95°
2026-05-06 18:19 41.11519 2.60456 17133 ft 386 kts 95°
2026-05-06 18:19 41.11333 2.64030 17768 ft 392 kts 95°
2026-05-06 18:19 41.11143 2.67662 18360 ft 398 kts 95°
2026-05-06 18:20 41.10949 2.71343 18876 ft 403 kts 96°
2026-05-06 18:20 41.10752 2.75067 19488 ft 406 kts 96°
2026-05-06 18:20 41.10552 2.78817 20102 ft 409 kts 96°
2026-05-06 18:20 41.10349 2.82604 20670 ft 414 kts 96°
2026-05-06 18:21 41.10143 2.86427 21222 ft 418 kts 96°
2026-05-06 18:21 41.09933 2.90287 21772 ft 422 kts 97°
2026-05-06 18:21 41.09720 2.94193 22326 ft 426 kts 97°
2026-05-06 18:21 41.09504 2.98130 22868 ft 430 kts 97°
2026-05-06 18:22 41.09284 3.02099 23396 ft 434 kts 97°
2026-05-06 18:22 41.09061 3.06113 23833 ft 438 kts 97°
2026-05-06 18:22 41.08835 3.10157 24268 ft 442 kts 97°
2026-05-06 18:22 41.08606 3.14232 24691 ft 446 kts 97°
2026-05-06 18:23 41.08373 3.18349 25110 ft 449 kts 97°
2026-05-06 18:23 41.08140 3.22435 25524 ft 453 kts 98°
2026-05-06 18:23 41.07900 3.26610 25950 ft 456 kts 98°
2026-05-06 18:23 41.07658 3.30816 26352 ft 460 kts 98°
2026-05-06 18:24 41.07412 3.35056 26743 ft 463 kts 98°
2026-05-06 18:24 41.07159 3.39389 27148 ft 467 kts 98°
2026-05-06 18:24 41.06906 3.43693 27535 ft 470 kts 98°
2026-05-06 18:24 41.06651 3.48020 27910 ft 473 kts 98°
2026-05-06 18:25 41.06393 3.52327 28283 ft 477 kts 99°
2026-05-06 18:25 41.05955 3.56677 28634 ft 476 kts 107°
2026-05-06 18:25 41.05209 3.60939 29007 ft 477 kts 109°
2026-05-06 18:25 41.04383 3.65209 29369 ft 479 kts 110°
2026-05-06 18:26 41.03555 3.69497 29706 ft 483 kts 109°
2026-05-06 18:26 41.02750 3.73831 30030 ft 486 kts 109°
2026-05-06 18:26 41.01964 3.78200 30313 ft 489 kts 108°
2026-05-06 18:26 41.01181 3.82590 30601 ft 491 kts 108°
2026-05-06 18:27 41.00391 3.86993 30960 ft 491 kts 109°
2026-05-06 18:27 40.99595 3.91393 31256 ft 493 kts 109°
2026-05-06 18:27 40.98791 3.95811 31508 ft 496 kts 109°
2026-05-06 18:27 40.97979 4.00261 31759 ft 498 kts 109°
2026-05-06 18:28 40.97166 4.04713 32092 ft 498 kts 109°
2026-05-06 18:28 40.96355 4.09159 32495 ft 497 kts 109°
2026-05-06 18:28 40.95543 4.13599 32893 ft 495 kts 109°
2026-05-06 18:28 40.94731 4.18028 33235 ft 495 kts 109°
2026-05-06 18:29 40.93916 4.22455 33539 ft 495 kts 109°
2026-05-06 18:29 40.93102 4.26871 33920 ft 494 kts 109°
2026-05-06 18:29 40.92287 4.31283 34221 ft 493 kts 109°
2026-05-06 18:29 40.91471 4.35684 34502 ft 493 kts 109°
2026-05-06 18:30 40.90655 4.40085 34799 ft 492 kts 109°
2026-05-06 18:30 40.89839 4.44472 35110 ft 491 kts 109°
2026-05-06 18:30 40.89023 4.48848 35406 ft 490 kts 109°
2026-05-06 18:30 40.88210 4.53212 35681 ft 489 kts 109°
2026-05-06 18:31 40.87396 4.57576 35935 ft 489 kts 109°
2026-05-06 18:31 40.86583 4.61929 36238 ft 487 kts 109°
2026-05-06 18:31 40.85777 4.66264 36525 ft 487 kts 108°
2026-05-06 18:31 40.85171 4.70680 36754 ft 490 kts 102°
2026-05-06 18:32 40.84739 4.75148 36962 ft 491 kts 101°
2026-05-06 18:32 40.84362 4.79650 36949 ft 496 kts 100°
2026-05-06 18:32 40.83618 4.88704 36955 ft 495 kts 100°
2026-05-06 18:33 40.82823 4.97659 36941 ft 488 kts 101°
2026-05-06 18:33 40.81987 5.06529 36960 ft 486 kts 101°
2026-05-06 18:34 40.81143 5.15324 36965 ft 486 kts 101°
2026-05-06 18:34 40.80290 5.24167 36965 ft 486 kts 101°
2026-05-06 18:35 40.79432 5.33010 36967 ft 486 kts 101°
2026-05-06 18:35 40.78568 5.41855 36957 ft 486 kts 101°
2026-05-06 18:36 40.77696 5.50713 36953 ft 487 kts 101°
2026-05-06 18:36 40.76816 5.59575 36955 ft 488 kts 101°
2026-05-06 18:37 40.75929 5.68448 36972 ft 489 kts 101°
2026-05-06 18:37 40.75032 5.77346 36962 ft 489 kts 101°
2026-05-06 18:38 40.74128 5.86247 36967 ft 490 kts 101°
2026-05-06 18:38 40.73216 5.95156 36966 ft 491 kts 101°
2026-05-06 18:39 40.72294 6.04072 36965 ft 491 kts 102°
2026-05-06 18:40 40.70898 6.17422 36956 ft 490 kts 102°
2026-05-06 18:40 40.69960 6.26312 36959 ft 489 kts 102°
2026-05-06 18:41 40.69020 6.35171 36969 ft 488 kts 102°
2026-05-06 18:41 40.68075 6.44003 36965 ft 487 kts 102°
2026-05-06 18:42 40.67124 6.52824 36962 ft 485 kts 102°
2026-05-06 18:42 40.66170 6.61609 36961 ft 484 kts 102°
2026-05-06 18:43 40.65211 6.70381 36962 ft 483 kts 102°
2026-05-06 18:43 40.64248 6.79116 36963 ft 482 kts 102°
2026-05-06 18:44 40.63281 6.87831 36958 ft 480 kts 102°
2026-05-06 18:44 40.62310 6.96526 36962 ft 480 kts 102°
2026-05-06 18:45 40.61333 7.05208 36966 ft 479 kts 102°
2026-05-06 18:45 40.60350 7.13882 36964 ft 479 kts 102°
2026-05-06 18:46 40.59362 7.22551 36963 ft 479 kts 102°
2026-05-06 18:46 40.58366 7.31220 36963 ft 479 kts 102°
2026-05-06 18:47 40.57365 7.39887 36964 ft 480 kts 102°
2026-05-06 18:47 40.56507 7.48613 36956 ft 484 kts 95°
2026-05-06 18:48 40.57056 7.57474 36968 ft 488 kts 85°
2026-05-06 18:48 40.57920 7.66326 36958 ft 488 kts 85°
2026-05-06 18:49 40.58711 7.75073 36961 ft 488 kts 86°
2026-05-06 18:49 40.59467 7.83989 36960 ft 488 kts 86°
2026-05-06 18:50 40.60210 7.92857 36965 ft 488 kts 86°
2026-05-06 18:50 40.60950 8.01727 36959 ft 487 kts 86°
2026-05-06 18:51 40.61681 8.10542 36973 ft 486 kts 86°
2026-05-06 18:51 40.62299 8.19386 36946 ft 483 kts 97°
2026-05-06 18:51 40.61665 8.23644 37004 ft 469 kts 115°
2026-05-06 18:52 40.60286 8.27481 36937 ft 459 kts 129°
2026-05-06 18:52 40.58312 8.30701 36984 ft 448 kts 140°
2026-05-06 18:52 40.56136 8.33629 36973 ft 448 kts 141°
2026-05-06 18:53 40.51694 8.39391 36968 ft 449 kts 142°
2026-05-06 18:53 40.47243 8.45187 36973 ft 452 kts 141°
2026-05-06 18:54 40.42829 8.51010 36969 ft 454 kts 141°
2026-05-06 18:54 40.38342 8.56957 36972 ft 456 kts 141°
2026-05-06 18:55 40.33899 8.62844 36966 ft 458 kts 141°
2026-05-06 18:55 40.29412 8.68778 36974 ft 458 kts 141°
2026-05-06 18:56 40.24920 8.74703 36968 ft 458 kts 141°
2026-05-06 18:56 40.20429 8.80615 36967 ft 457 kts 141°
2026-05-06 18:57 40.15947 8.86503 36967 ft 456 kts 141°
2026-05-06 18:57 40.11477 8.92362 36958 ft 454 kts 141°
2026-05-06 18:58 40.07017 8.98198 36969 ft 453 kts 141°
2026-05-06 18:58 40.02566 9.04009 36976 ft 452 kts 141°
2026-05-06 18:59 39.98118 9.09803 36953 ft 452 kts 141°
2026-05-06 18:59 39.93675 9.15583 36976 ft 451 kts 141°
2026-05-06 19:00 39.89235 9.21345 36987 ft 450 kts 141°
2026-05-06 19:00 39.84793 9.27099 36988 ft 451 kts 141°
2026-05-06 19:01 39.80339 9.32857 36993 ft 452 kts 141°
2026-05-06 19:01 39.75874 9.38618 36989 ft 453 kts 141°
2026-05-06 19:02 39.71393 9.44390 36986 ft 454 kts 141°
2026-05-06 19:02 39.66905 9.50160 36984 ft 454 kts 141°
2026-05-06 19:03 39.62408 9.55931 36972 ft 454 kts 141°
2026-05-06 19:03 39.58676 9.60711 36981 ft 454 kts 141°
2026-05-06 19:04 39.54173 9.66467 36983 ft 455 kts 141°
2026-05-06 19:04 39.48929 9.73158 36984 ft 455 kts 141°
2026-05-06 19:05 39.45149 9.77971 36987 ft 456 kts 141°
2026-05-06 19:05 39.40626 9.83721 36965 ft 456 kts 141°
2026-05-06 19:06 39.36129 9.89427 36972 ft 455 kts 141°
2026-05-06 19:06 39.31598 9.95164 36979 ft 456 kts 142°
2026-05-06 19:07 39.27062 10.00897 36984 ft 457 kts 142°
2026-05-06 19:07 39.22509 10.06639 36979 ft 458 kts 142°
2026-05-06 19:08 39.17946 10.12384 36982 ft 459 kts 142°
2026-05-06 19:08 39.13371 10.18134 36978 ft 460 kts 142°
2026-05-06 19:09 39.08790 10.23879 36976 ft 459 kts 142°
2026-05-06 19:09 39.04207 10.29617 36970 ft 460 kts 142°
2026-05-06 19:10 38.99613 10.35356 36971 ft 461 kts 142°
2026-05-06 19:10 38.95013 10.41092 36972 ft 461 kts 142°
2026-05-06 19:11 38.90406 10.46826 36971 ft 461 kts 142°
2026-05-06 19:11 38.85793 10.52558 36948 ft 461 kts 142°
2026-05-06 19:12 38.81184 10.58274 36955 ft 461 kts 142°
2026-05-06 19:12 38.76568 10.63986 36974 ft 462 kts 143°
2026-05-06 19:13 38.71973 10.69662 36973 ft 462 kts 143°
2026-05-06 19:13 38.67343 10.75370 36970 ft 463 kts 143°
2026-05-06 19:14 38.62701 10.81082 36971 ft 463 kts 143°
2026-05-06 19:14 38.58050 10.86795 36971 ft 464 kts 143°
2026-05-06 19:15 38.53380 10.92517 36976 ft 467 kts 143°
2026-05-06 19:15 38.48673 10.98275 36978 ft 470 kts 143°
2026-05-06 19:16 38.43933 11.04063 36980 ft 473 kts 143°
2026-05-06 19:16 38.39156 11.09886 36973 ft 476 kts 143°
2026-05-06 19:17 38.34362 11.15719 36938 ft 478 kts 144°
2026-05-06 19:17 38.29549 11.21565 36965 ft 479 kts 144°
2026-05-06 19:18 38.24713 11.27426 36978 ft 481 kts 144°
2026-05-06 19:18 38.19895 11.33253 36954 ft 482 kts 144°
2026-05-06 19:19 38.15031 11.39127 36966 ft 483 kts 144°
2026-05-06 19:19 38.10156 11.45000 36966 ft 483 kts 144°
2026-05-06 19:20 38.05274 11.50872 36965 ft 484 kts 145°
2026-05-06 19:20 38.00377 11.56750 36970 ft 485 kts 145°
2026-05-06 19:21 37.95471 11.62626 36968 ft 486 kts 145°
2026-05-06 19:21 37.90544 11.68516 36803 ft 489 kts 145°
2026-05-06 19:21 37.88066 11.71473 36529 ft 488 kts 145°
2026-05-06 19:22 37.85608 11.74409 36261 ft 483 kts 145°
2026-05-06 19:22 37.83181 11.77310 36002 ft 477 kts 145°
2026-05-06 19:22 37.80778 11.80176 35749 ft 473 kts 145°
2026-05-06 19:22 37.78385 11.83024 35507 ft 471 kts 145°
2026-05-06 19:23 37.76004 11.85851 35255 ft 469 kts 145°
2026-05-06 19:23 37.73629 11.88668 35007 ft 467 kts 145°
2026-05-06 19:23 37.71265 11.91470 34773 ft 465 kts 145°
2026-05-06 19:23 37.68910 11.94259 34524 ft 462 kts 145°
2026-05-06 19:24 37.66579 11.97021 34210 ft 458 kts 145°
2026-05-06 19:24 37.64261 11.99763 33841 ft 455 kts 145°
2026-05-06 19:24 37.61957 12.02486 33449 ft 452 kts 145°
2026-05-06 19:24 37.59668 12.05188 33048 ft 449 kts 144°
2026-05-06 19:25 37.57400 12.07863 32720 ft 445 kts 144°
2026-05-06 19:25 37.55149 12.10517 32307 ft 442 kts 144°
2026-05-06 19:25 37.52909 12.13154 31980 ft 438 kts 144°
2026-05-06 19:25 37.50688 12.15766 31633 ft 436 kts 144°
2026-05-06 19:26 37.48480 12.18362 31298 ft 433 kts 144°
2026-05-06 19:26 37.46290 12.20933 30952 ft 430 kts 143°
2026-05-06 19:26 37.44108 12.23493 30606 ft 427 kts 143°
2026-05-06 19:26 37.41946 12.26028 30272 ft 424 kts 143°
2026-05-06 19:27 37.39796 12.28547 29924 ft 421 kts 142°
2026-05-06 19:27 37.37663 12.31045 29532 ft 417 kts 142°
2026-05-06 19:27 37.35550 12.33517 29183 ft 413 kts 142°
2026-05-06 19:27 37.33458 12.35963 28827 ft 408 kts 142°
2026-05-06 19:28 37.31415 12.38349 28477 ft 405 kts 142°
2026-05-06 19:28 37.29337 12.40775 28094 ft 401 kts 143°
2026-05-06 19:28 37.27298 12.43151 27733 ft 399 kts 142°
2026-05-06 19:28 37.25274 12.45510 27408 ft 395 kts 142°
2026-05-06 19:29 37.23294 12.47815 27061 ft 393 kts 142°
2026-05-06 19:29 37.21266 12.50175 26638 ft 392 kts 142°
2026-05-06 19:29 37.19266 12.52498 26243 ft 391 kts 142°
2026-05-06 19:29 37.17310 12.54780 25949 ft 388 kts 140°
2026-05-06 19:30 37.15475 12.57247 25669 ft 386 kts 135°
2026-05-06 19:30 37.13753 12.59816 25373 ft 383 kts 133°
2026-05-06 19:30 37.12073 12.62391 25066 ft 380 kts 133°
2026-05-06 19:30 37.10408 12.64941 24786 ft 376 kts 133°
2026-05-06 19:31 37.08727 12.67492 24489 ft 373 kts 133°
2026-05-06 19:31 37.07078 12.69976 24201 ft 369 kts 134°
2026-05-06 19:31 37.03808 12.74860 23645 ft 362 kts 134°
2026-05-06 19:32 37.02214 12.77233 23314 ft 359 kts 134°
2026-05-06 19:32 37.00592 12.79643 22968 ft 356 kts 134°
2026-05-06 19:32 36.98999 12.82008 22600 ft 354 kts 134°
2026-05-06 19:32 36.97437 12.84327 22234 ft 353 kts 135°
2026-05-06 19:33 36.95859 12.86668 21876 ft 351 kts 135°
2026-05-06 19:33 36.94290 12.88993 21536 ft 349 kts 135°
2026-05-06 19:33 36.92731 12.91303 21195 ft 347 kts 135°
2026-05-06 19:33 36.91176 12.93603 20852 ft 345 kts 135°
2026-05-06 19:34 36.89631 12.95888 20511 ft 344 kts 136°
2026-05-06 19:34 36.88091 12.98162 20181 ft 342 kts 136°
2026-05-06 19:34 36.86558 13.00425 19855 ft 340 kts 136°
2026-05-06 19:34 36.85034 13.02674 19532 ft 339 kts 136°
2026-05-06 19:35 36.83515 13.04915 19222 ft 337 kts 137°
2026-05-06 19:35 36.82002 13.07145 18907 ft 336 kts 137°
2026-05-06 19:35 36.80496 13.09363 18601 ft 334 kts 137°
2026-05-06 19:35 36.78997 13.11570 18283 ft 333 kts 137°
2026-05-06 19:36 36.77505 13.13764 17945 ft 331 kts 137°
2026-05-06 19:36 36.76018 13.15950 17589 ft 330 kts 137°
2026-05-06 19:36 36.74540 13.18122 17279 ft 327 kts 137°
2026-05-06 19:36 36.73073 13.20277 16979 ft 324 kts 137°
2026-05-06 19:37 36.71621 13.22408 16682 ft 322 kts 137°
2026-05-06 19:37 36.70178 13.24524 16378 ft 319 kts 137°
2026-05-06 19:37 36.68745 13.26623 16086 ft 317 kts 137°
2026-05-06 19:37 36.67803 13.28004 15883 ft 315 kts 137°
2026-05-06 19:38 36.65912 13.30770 15498 ft 312 kts 137°
2026-05-06 19:38 36.64511 13.32820 15219 ft 310 kts 137°
2026-05-06 19:38 36.63119 13.34854 14937 ft 307 kts 137°
2026-05-06 19:38 36.61739 13.36870 14663 ft 305 kts 137°
2026-05-06 19:39 36.60369 13.38870 14396 ft 302 kts 137°
2026-05-06 19:39 36.59010 13.40854 14122 ft 300 kts 137°
2026-05-06 19:39 36.57660 13.42822 13846 ft 298 kts 137°
2026-05-06 19:39 36.56319 13.44777 13559 ft 296 kts 137°
2026-05-06 19:40 36.54989 13.46714 13261 ft 294 kts 137°
2026-05-06 19:40 36.53667 13.48639 12952 ft 292 kts 137°
2026-05-06 19:40 36.52351 13.50554 12635 ft 291 kts 137°
2026-05-06 19:40 36.51036 13.52463 12290 ft 291 kts 137°
2026-05-06 19:41 36.49727 13.54365 12003 ft 289 kts 137°
2026-05-06 19:41 36.48426 13.56255 11713 ft 286 kts 137°
2026-05-06 19:41 36.47135 13.58127 11437 ft 284 kts 136°
2026-05-06 19:41 36.45853 13.59986 11145 ft 283 kts 136°
2026-05-06 19:42 36.44577 13.61835 10843 ft 281 kts 136°
2026-05-06 19:42 36.43312 13.63669 10586 ft 278 kts 136°
2026-05-06 19:42 36.42057 13.65486 10320 ft 276 kts 136°
2026-05-06 19:42 36.40809 13.67291 10054 ft 274 kts 136°
2026-05-06 19:43 36.39572 13.69082 9786 ft 272 kts 135°
2026-05-06 19:43 36.38340 13.70862 9485 ft 271 kts 135°
2026-05-06 19:43 36.37117 13.72629 9198 ft 269 kts 135°
2026-05-06 19:43 36.35899 13.74389 8873 ft 268 kts 135°
2026-05-06 19:44 36.34684 13.76142 8585 ft 267 kts 135°
2026-05-06 19:44 36.33482 13.77878 8336 ft 264 kts 135°
2026-05-06 19:44 36.32283 13.79606 8047 ft 264 kts 135°
2026-05-06 19:44 36.31097 13.81317 7833 ft 260 kts 135°
2026-05-06 19:45 36.29947 13.83036 7639 ft 257 kts 133°
2026-05-06 19:45 36.28852 13.84781 7526 ft 257 kts 132°
2026-05-06 19:45 36.27771 13.86519 7400 ft 258 kts 131°
2026-05-06 19:45 36.26674 13.88282 7280 ft 259 kts 131°
2026-05-06 19:46 36.25564 13.90060 7140 ft 261 kts 132°
2026-05-06 19:46 36.24446 13.91845 6984 ft 263 kts 131°
2026-05-06 19:46 36.23325 13.93634 6836 ft 261 kts 132°
2026-05-06 19:46 36.22224 13.95390 6679 ft 256 kts 132°
2026-05-06 19:47 36.21139 13.97117 6512 ft 253 kts 131°
2026-05-06 19:47 36.20056 13.98836 6358 ft 253 kts 132°
2026-05-06 19:47 36.18977 14.00547 6204 ft 253 kts 131°
2026-05-06 19:47 36.17896 14.02261 6054 ft 252 kts 131°
2026-05-06 19:48 36.16819 14.03967 5909 ft 251 kts 131°
2026-05-06 19:48 36.15748 14.05663 5758 ft 250 kts 131°
2026-05-06 19:48 36.14678 14.07356 5629 ft 249 kts 131°
2026-05-06 19:48 36.13615 14.09037 5504 ft 247 kts 131°
2026-05-06 19:49 36.12564 14.10699 5373 ft 242 kts 130°
2026-05-06 19:49 36.11543 14.12314 5250 ft 235 kts 131°
2026-05-06 19:49 36.10546 14.13890 5122 ft 231 kts 130°
2026-05-06 19:49 36.09559 14.15448 4986 ft 228 kts 130°
2026-05-06 19:50 36.08582 14.16990 4875 ft 227 kts 130°
2026-05-06 19:50 36.07620 14.18507 4743 ft 221 kts 130°
2026-05-06 19:50 36.06686 14.19981 4601 ft 214 kts 130°
2026-05-06 19:50 36.05786 14.21401 4494 ft 205 kts 130°
2026-05-06 19:51 36.04925 14.22757 4364 ft 196 kts 130°
2026-05-06 19:51 36.04099 14.24059 4227 ft 192 kts 130°
2026-05-06 19:51 36.03272 14.25358 4115 ft 193 kts 130°
2026-05-06 19:51 36.02441 14.26630 3981 ft 192 kts 132°
2026-05-06 19:52 36.01577 14.27836 3866 ft 182 kts 134°
2026-05-06 19:52 36.00740 14.28949 3743 ft 171 kts 134°
2026-05-06 19:52 35.99948 14.29975 3634 ft 159 kts 135°
2026-05-06 19:52 35.99204 14.30926 3515 ft 149 kts 136°
2026-05-06 19:53 35.98473 14.31850 3422 ft 151 kts 136°
2026-05-06 19:53 35.97740 14.32772 3319 ft 150 kts 136°
2026-05-06 19:53 35.97011 14.33689 3236 ft 149 kts 136°
2026-05-06 19:53 35.96292 14.34597 3177 ft 148 kts 136°
2026-05-06 19:54 35.95561 14.35512 2978 ft 149 kts 137°
2026-05-06 19:54 35.95077 14.36117 2898 ft 145 kts 136°
2026-05-06 19:54 35.94360 14.37009 2686 ft 146 kts 137°
2026-05-06 19:54 35.93654 14.37888 2480 ft 143 kts 138°
2026-05-06 19:55 35.92964 14.38744 2346 ft 143 kts 135°
2026-05-06 19:55 35.92246 14.39639 2141 ft 148 kts 135°
2026-05-06 19:55 35.91530 14.40531 1927 ft 148 kts 135°
2026-05-06 19:55 35.90813 14.41426 1754 ft 143 kts 135°
2026-05-06 19:56 35.90132 14.42271 1560 ft 136 kts 134°
2026-05-06 19:56 35.89489 14.43074 1410 ft 129 kts 136°
2026-05-06 19:56 35.88853 14.43865 1225 ft 129 kts 136°
2026-05-06 19:56 35.88210 14.44664 1029 ft 133 kts 133°
2026-05-06 19:57 35.87570 14.45474 893 ft 131 kts 134°
2026-05-06 19:57 35.86901 14.46251 665 ft 132 kts 131°
2026-05-06 19:57 35.86296 14.47062 495 ft 129 kts 134°
2026-05-06 19:57 35.85657 14.47838 331 ft 131 kts 130°
2026-05-06 19:58 35.85053 14.48611 266 ft 114 kts 132°
2026-05-06 19:58 35.84612 14.49157 258 ft 61 kts 135°
2026-05-06 19:58 35.84470 14.49400 258 ft 20 kts 118°
2026-05-06 19:58 35.84463 14.49553 258 ft 19 kts 48°
2026-05-06 19:59 35.84564 14.49533 258 ft 12 kts 359°
2026-05-06 19:59 35.84637 14.49580 258 ft 12 kts 11°
2026-05-06 19:59 35.84712 14.49539 258 ft 12 kts 320°
2026-05-06 19:59 35.84771 14.49471 258 ft 11 kts 322°
2026-05-06 20:00 35.84833 14.49456 258 ft 4 kts 357°
2026-05-06 20:00 35.84857 14.49455 258 ft 2 kts 359°
2026-05-06 20:00 35.84860 14.49455 258 ft 0 kts 359°